TimeEDT,TemperatureF,Dew PointF,Humidity,Sea Level PressureIn,VisibilityMPH,Wind Direction,Wind SpeedMPH,Gust SpeedMPH,PrecipitationIn,Events,Conditions,WindDirDegrees,DateUTC
12:15 AM,49.5,48.0,95,29.79,5.0,West,10.4,18.4,N/A,,Drizzle,280,2013-03-19 04:15:00
12:35 AM,49.1,46.9,92,29.81,10.0,West,8.1,-,N/A,,Overcast,280,2013-03-19 04:35:00
12:55 AM,48.6,45.9,90,29.81,10.0,WNW,11.5,-,N/A,,Overcast,290,2013-03-19 04:55:00
1:15 AM,48.2,45.1,89,29.82,10.0,WNW,5.8,-,N/A,,Overcast,300,2013-03-19 05:15:00
1:35 AM,46.8,43.7,89,29.84,10.0,NW,9.2,23.0,N/A,,Overcast,310,2013-03-19 05:35:00
1:55 AM,45.5,41.9,87,29.85,10.0,WNW,11.5,21.9,N/A,,Overcast,300,2013-03-19 05:55:00
2:15 AM,43.9,39.9,86,29.86,10.0,NW,8.1,17.3,N/A,,Overcast,320,2013-03-19 06:15:00
2:35 AM,43.9,38.1,80,29.87,10.0,NW,6.9,20.7,N/A,,Overcast,310,2013-03-19 06:35:00
2:55 AM,43.9,36.9,76,29.88,10.0,West,6.9,18.4,N/A,,Overcast,280,2013-03-19 06:55:00
3:15 AM,43.3,36.0,75,29.90,10.0,West,11.5,-,N/A,,Overcast,280,2013-03-19 07:15:00
3:35 AM,42.8,33.3,69,29.91,10.0,WNW,8.1,17.3,N/A,,Overcast,290,2013-03-19 07:35:00
3:55 AM,41.5,32.5,70,29.92,10.0,West,13.8,23.0,N/A,,Overcast,280,2013-03-19 07:55:00
4:15 AM,40.3,32.0,72,29.93,10.0,WNW,6.9,-,N/A,,Scattered Clouds,290,2013-03-19 08:15:00
4:35 AM,39.6,31.6,73,29.94,10.0,West,6.9,-,N/A,,Clear,280,2013-03-19 08:35:00
4:55 AM,38.8,31.1,74,29.94,10.0,West,3.5,-,N/A,,Scattered Clouds,270,2013-03-19 08:55:00
5:15 AM,38.3,31.1,75,29.95,10.0,West,3.5,-,N/A,,Scattered Clouds,270,2013-03-19 09:15:00
5:35 AM,38.5,31.6,76,29.96,10.0,WSW,4.6,-,N/A,,Overcast,240,2013-03-19 09:35:00
5:55 AM,39.2,32.0,75,29.96,10.0,SW,6.9,-,N/A,,Overcast,230,2013-03-19 09:55:00
6:15 AM,39.2,32.2,76,29.96,10.0,WSW,5.8,-,N/A,,Mostly Cloudy,240,2013-03-19 10:15:00
6:35 AM,38.5,32.4,79,29.96,10.0,WSW,9.2,-,N/A,,Scattered Clouds,240,2013-03-19 10:35:00
6:55 AM,38.3,32.4,79,29.96,10.0,WSW,5.8,-,N/A,,Clear,240,2013-03-19 10:55:00
7:15 AM,38.5,32.2,78,29.96,10.0,WSW,9.2,18.4,N/A,,Clear,250,2013-03-19 11:15:00
7:35 AM,38.3,32.0,78,29.97,10.0,WSW,9.2,16.1,N/A,,Clear,240,2013-03-19 11:35:00
7:55 AM,38.1,32.0,79,29.96,10.0,WSW,11.5,-,N/A,,Clear,250,2013-03-19 11:55:00
8:15 AM,38.3,31.8,77,29.96,10.0,WSW,10.4,-,N/A,,Clear,250,2013-03-19 12:15:00
8:35 AM,38.3,32.0,78,29.97,10.0,WSW,8.1,-,N/A,,Clear,240,2013-03-19 12:35:00
8:55 AM,38.8,31.8,76,29.96,10.0,WSW,8.1,-,N/A,,Clear,250,2013-03-19 12:55:00
9:15 AM,39.4,31.5,73,29.97,10.0,WSW,11.5,17.3,N/A,,Clear,250,2013-03-19 13:15:00
9:35 AM,40.3,31.1,70,29.97,10.0,West,17.3,-,N/A,,Clear,260,2013-03-19 13:35:00
9:55 AM,41.0,30.7,67,29.97,10.0,WSW,15.0,21.9,N/A,,Clear,250,2013-03-19 13:55:00
10:15 AM,41.7,28.6,60,29.99,10.0,West,11.5,21.9,N/A,,Clear,270,2013-03-19 14:15:00
10:35 AM,41.9,26.1,53,29.99,10.0,West,10.4,24.2,N/A,,Clear,280,2013-03-19 14:35:00
10:55 AM,42.8,25.5,51,30.00,10.0,WNW,12.7,27.6,N/A,,Clear,290,2013-03-19 14:55:00
11:15 AM,43.5,26.2,51,30.00,10.0,West,9.2,23.0,N/A,,Clear,270,2013-03-19 15:15:00
11:35 AM,44.6,26.1,48,29.99,10.0,West,10.4,19.6,N/A,,Clear,280,2013-03-19 15:35:00
11:55 AM,45.0,25.3,46,29.99,10.0,West,15.0,25.3,N/A,,Clear,270,2013-03-19 15:55:00
12:15 PM,45.9,25.2,44,29.99,10.0,WSW,12.7,19.6,N/A,,Clear,250,2013-03-19 16:15:00
12:35 PM,46.2,21.9,38,29.98,10.0,West,11.5,18.4,N/A,,Clear,280,2013-03-19 16:35:00
12:55 PM,47.7,22.3,37,29.97,10.0,West,21.9,27.6,N/A,,Clear,260,2013-03-19 16:55:00
1:15 PM,48.0,20.5,34,29.99,10.0,West,13.8,29.9,N/A,,Clear,270,2013-03-19 17:15:00
1:35 PM,48.6,20.1,33,30.00,10.0,West,15.0,29.9,N/A,,Clear,260,2013-03-19 17:35:00
1:55 PM,48.9,18.3,30,30.00,10.0,West,15.0,27.6,N/A,,Clear,270,2013-03-19 17:55:00
2:15 PM,49.1,17.4,28,30.00,10.0,WNW,16.1,28.8,N/A,,Clear,290,2013-03-19 18:15:00
2:35 PM,48.6,12.6,24,30.01,10.0,WNW,19.6,32.2,N/A,,Clear,300,2013-03-19 18:35:00
2:55 PM,48.4,10.8,22,30.00,10.0,West,16.1,29.9,N/A,,Clear,280,2013-03-19 18:55:00
3:15 PM,48.6,13.6,25,30.01,10.0,WNW,13.8,26.5,N/A,,Clear,290,2013-03-19 19:15:00
3:35 PM,49.3,15.6,26,30.00,10.0,WNW,11.5,21.9,N/A,,Clear,290,2013-03-19 19:35:00
3:55 PM,50.2,16.3,26,30.01,10.0,West,13.8,25.3,N/A,,Clear,270,2013-03-19 19:55:00
4:15 PM,50.2,12.7,22,30.01,10.0,West,16.1,24.2,N/A,,Clear,270,2013-03-19 20:15:00
4:35 PM,50.7,11.5,21,30.02,10.0,West,20.7,28.8,N/A,,Clear,280,2013-03-19 20:35:00
4:55 PM,50.4,8.6,19,30.03,10.0,WNW,16.1,27.6,N/A,,Clear,290,2013-03-19 20:55:00
5:15 PM,50.7,10.4,20,30.04,10.0,NW,23.0,33.4,N/A,,Clear,310,2013-03-19 21:15:00
5:35 PM,49.3,7.0,18,30.04,10.0,NW,15.0,28.8,N/A,,Clear,320,2013-03-19 21:35:00
5:55 PM,49.1,5.9,17,30.05,10.0,WNW,24.2,31.1,N/A,,Clear,300,2013-03-19 21:55:00
6:15 PM,48.0,6.3,18,30.05,10.0,NW,12.7,25.3,N/A,,Clear,310,2013-03-19 22:15:00
6:35 PM,48.0,7.5,19,30.06,10.0,WNW,12.7,20.7,N/A,,Clear,290,2013-03-19 22:35:00
6:55 PM,46.4,3.7,17,30.06,10.0,WNW,9.2,23.0,N/A,,Clear,290,2013-03-19 22:55:00
7:15 PM,45.0,6.4,21,30.07,10.0,West,6.9,-,N/A,,Clear,280,2013-03-19 23:15:00
7:35 PM,44.6,4.3,19,30.07,10.0,WNW,8.1,-,N/A,,Clear,290,2013-03-19 23:35:00
7:55 PM,43.7,5.7,21,30.07,10.0,WNW,4.6,-,N/A,,Clear,290,2013-03-19 23:55:00
8:15 PM,43.7,5.9,21,30.07,10.0,West,6.9,-,N/A,,Clear,280,2013-03-20 00:15:00
8:35 PM,43.0,5.5,21,30.07,10.0,WNW,9.2,26.5,N/A,,Clear,300,2013-03-20 00:35:00
8:55 PM,42.8,5.9,22,30.08,10.0,West,10.4,19.6,N/A,,Clear,280,2013-03-20 00:55:00
9:35 PM,41.0,7.3,25,30.10,10.0,WNW,4.6,-,N/A,,Clear,290,2013-03-20 01:35:00
9:55 PM,41.0,7.3,25,30.10,10.0,WNW,6.9,-,N/A,,Clear,290,2013-03-20 01:55:00
10:15 PM,40.6,7.7,26,30.10,10.0,WNW,5.8,-,N/A,,Clear,290,2013-03-20 02:15:00
10:35 PM,40.6,8.4,27,30.10,10.0,West,8.1,-,N/A,,Clear,280,2013-03-20 02:35:00
10:55 PM,40.1,9.5,28,30.10,10.0,West,8.1,-,N/A,,Clear,280,2013-03-20 02:55:00
11:15 PM,39.7,10.0,30,30.10,10.0,West,6.9,-,N/A,,Clear,280,2013-03-20 03:15:00
11:35 PM,39.2,10.6,31,30.10,10.0,WNW,6.9,-,N/A,,Clear,290,2013-03-20 03:35:00
11:55 PM,38.7,10.8,32,30.10,10.0,West,6.9,-,N/A,,Clear,270,2013-03-20 03:55:00